Weather reports worldwide

Advertisment
Braemar, United Kingdom (99089): temperature & dewpoint: 17.07.2019 09:00:00 - 23.07.2019 09:00:00 (BST)Braemar, United Kingdom (99089): temperature -20cm & temperature -100cm: 17.07.2019 09:00:00 - 23.07.2019 09:00:00 (BST)Braemar, United Kingdom (99089): precipitation: 17.07.2019 09:00:00 - 23.07.2019 09:00:00 (BST)
Date & Time tt [°C] td [°C] tt -20cm [°C] tt -100cm [°C] rr [mm]
23.07.2019 09:00:00 - - - - -
23.07.2019 08:00:00 19,5 15,1 - - 0,0
23.07.2019 07:00:00 17,8 15,0 - - 0,0
23.07.2019 06:00:00 15,3 14,6 - - 0,0
23.07.2019 05:00:00 14,8 13,5 - - 0,0
23.07.2019 04:00:00 15,4 13,1 - - 0,0
23.07.2019 03:00:00 17,6 14,0 - - 0,0
23.07.2019 02:00:00 18,0 14,0 - - 0,0
23.07.2019 01:00:00 18,2 13,9 - - 0,0
23.07.2019 00:00:00 18,3 14,1 - - 0,0
22.07.2019 23:00:00 19,1 14,1 - - 0,0
22.07.2019 22:00:00 19,1 14,8 - - 0,0
22.07.2019 21:00:00 18,6 15,5 - - 0,0
22.07.2019 20:00:00 18,2 15,8 - - 0,0
22.07.2019 19:00:00 18,7 16,0 - - 0,0
22.07.2019 18:00:00 19,0 16,2 - - 0,0
22.07.2019 17:00:00 19,4 15,9 - - 0,0
22.07.2019 16:00:00 19,1 15,9 - - 0,0
22.07.2019 15:00:00 20,7 15,8 - - 0,0
22.07.2019 14:00:00 21,2 16,2 - - 0,0
22.07.2019 13:00:00 21,0 16,4 - - 0,0
22.07.2019 12:00:00 20,5 16,3 - - 0,0
22.07.2019 11:00:00 19,7 15,7 - - 0,0
22.07.2019 10:00:00 18,6 15,5 15,0 13,5 0,0
22.07.2019 09:00:00 17,7 15,1 - - 0,0
22.07.2019 08:00:00 16,5 14,3 - - 0,0
22.07.2019 07:00:00 15,5 13,7 - - 0,0
22.07.2019 06:00:00 15,1 13,3 - - 0,0
22.07.2019 05:00:00 14,1 12,8 - - 0,0
22.07.2019 04:00:00 14,5 13,5 - - 0,0
22.07.2019 03:00:00 14,4 13,4 - - 0,0
22.07.2019 02:00:00 15,1 13,2 - - 0,0
22.07.2019 01:00:00 14,8 13,4 - - 0,0
22.07.2019 00:00:00 15,5 13,2 - - 0,0
21.07.2019 23:00:00 15,9 13,4 - - 0,0
21.07.2019 22:00:00 15,3 13,5 - - 0,0
21.07.2019 21:00:00 14,6 13,3 - - 0,0
21.07.2019 20:00:00 14,3 12,8 - - 0,0
21.07.2019 19:00:00 14,7 12,0 - - 0,0
21.07.2019 18:00:00 15,0 11,3 - - 0,0
21.07.2019 17:00:00 15,7 10,1 - - 0,0
21.07.2019 16:00:00 15,8 10,0 - - 0,0
21.07.2019 15:00:00 16,2 9,8 - - 0,0
21.07.2019 14:00:00 16,1 9,8 - - 0,0
21.07.2019 13:00:00 16,1 9,2 - - 0,0
21.07.2019 12:00:00 16,1 9,8 - - 0,0
21.07.2019 11:00:00 15,8 10,4 - - 0,0
21.07.2019 10:00:00 15,5 10,5 15,0 13,5 0,0
21.07.2019 09:00:00 14,4 10,9 - - 0,0
21.07.2019 08:00:00 13,2 9,9 - - 0,0
21.07.2019 07:00:00 12,6 10,4 - - 0,0
21.07.2019 06:00:00 11,9 10,5 - - 0,0
21.07.2019 05:00:00 11,0 10,4 - - 0,0
21.07.2019 04:00:00 8,8 8,2 - - 0,0
21.07.2019 03:00:00 7,8 7,0 - - 0,0
21.07.2019 02:00:00 8,2 6,7 - - 0,0
21.07.2019 01:00:00 8,6 6,2 - - 0,0
21.07.2019 00:00:00 10,0 6,8 - - 0,0
20.07.2019 23:00:00 10,6 7,9 - - 0,0
20.07.2019 22:00:00 12,3 8,9 - - 0,0
20.07.2019 21:00:00 13,3 8,9 - - 0,0
20.07.2019 20:00:00 16,4 9,8 - - 0,0
20.07.2019 19:00:00 15,6 9,9 - - 0,0
20.07.2019 18:00:00 16,9 10,5 - - 0,0
20.07.2019 17:00:00 16,3 10,8 - - 0,0
20.07.2019 16:00:00 16,6 11,2 - - 0,0
20.07.2019 15:00:00 16,9 11,2 - - 0,0
20.07.2019 14:00:00 17,4 12,0 - - 0,0
20.07.2019 13:00:00 18,3 12,2 - - 0,0
20.07.2019 12:00:00 17,5 11,0 - - 0,0
20.07.2019 11:00:00 17,0 12,2 - - 0,0
20.07.2019 10:00:00 16,3 13,6 15,4 13,5 0,0
20.07.2019 09:00:00 14,8 13,7 - - 0,0
20.07.2019 08:00:00 13,9 13,3 - - 0,0
20.07.2019 07:00:00 13,2 13,1 - - 0,4
20.07.2019 06:00:00 13,0 12,8 - - 1,0
20.07.2019 05:00:00 12,9 12,7 - - 0,2
20.07.2019 04:00:00 13,0 12,8 - - 0,0
20.07.2019 03:00:00 12,7 12,4 - - 0,0
20.07.2019 02:00:00 12,7 12,2 - - 0,8
20.07.2019 01:00:00 12,9 12,2 - - 0,0
20.07.2019 00:00:00 12,8 12,4 - - 0,0
19.07.2019 23:00:00 12,8 12,3 - - 0,4
19.07.2019 22:00:00 12,8 12,4 - - 1,2
19.07.2019 21:00:00 13,4 11,9 - - 0,0
19.07.2019 20:00:00 14,6 11,2 - - 0,0
19.07.2019 19:00:00 15,0 11,6 - - 0,2
19.07.2019 18:00:00 14,9 11,2 - - 0,0
19.07.2019 17:00:00 17,4 9,8 - - 0,0
19.07.2019 16:00:00 17,2 9,6 - - 0,0
19.07.2019 15:00:00 17,6 9,4 - - 0,0
19.07.2019 14:00:00 16,9 9,1 - - 0,0
19.07.2019 13:00:00 17,0 8,9 - - 0,0
19.07.2019 12:00:00 17,2 10,0 - - 0,0
19.07.2019 11:00:00 16,6 9,8 - - 0,0
19.07.2019 10:00:00 15,7 10,4 15,2 13,5 0,0
19.07.2019 09:00:00 15,1 9,7 - - 0,0
19.07.2019 08:00:00 14,2 9,6 - - 0,0
19.07.2019 07:00:00 12,9 9,4 - - 0,0
19.07.2019 06:00:00 12,2 9,3 - - 0,0
19.07.2019 05:00:00 12,0 8,8 - - 0,0
19.07.2019 04:00:00 11,9 8,9 - - 0,0
19.07.2019 03:00:00 11,7 8,5 - - 0,0
19.07.2019 02:00:00 12,2 8,9 - - 0,0
19.07.2019 01:00:00 11,9 9,0 - - 0,0
19.07.2019 00:00:00 11,7 8,7 - - 0,0
18.07.2019 23:00:00 12,0 9,3 - - 0,0
18.07.2019 22:00:00 12,5 9,5 - - 0,0
18.07.2019 21:00:00 13,3 9,1 - - 0,0
18.07.2019 20:00:00 14,2 9,4 - - 0,0
18.07.2019 19:00:00 14,3 9,3 - - 0,0
18.07.2019 18:00:00 15,3 9,9 - - 0,0
18.07.2019 17:00:00 14,4 9,8 - - 0,0
18.07.2019 16:00:00 16,0 9,8 - - 0,0
18.07.2019 15:00:00 15,6 9,5 - - 0,0
18.07.2019 14:00:00 15,4 9,6 - - 0,2
18.07.2019 13:00:00 13,6 9,3 - - 0,2
18.07.2019 12:00:00 14,3 9,3 - - 0,0
18.07.2019 11:00:00 15,5 10,2 - - 0,0
18.07.2019 10:00:00 14,6 9,8 15,5 13,5 0,0
18.07.2019 09:00:00 13,2 10,0 - - 0,0
18.07.2019 08:00:00 12,2 10,2 - - 0,0
18.07.2019 07:00:00 10,8 9,4 - - 0,0
18.07.2019 06:00:00 8,5 7,8 - - 0,0
18.07.2019 05:00:00 8,9 7,7 - - 0,0
18.07.2019 04:00:00 10,1 8,4 - - 0,0
18.07.2019 03:00:00 11,4 10,2 - - 0,2
18.07.2019 02:00:00 11,9 11,4 - - 0,8
18.07.2019 01:00:00 13,0 12,7 - - 2,2
18.07.2019 00:00:00 13,2 12,6 - - 2,0
17.07.2019 23:00:00 13,6 12,6 - - 0,4
17.07.2019 22:00:00 14,0 12,2 - - 0,0
17.07.2019 21:00:00 14,6 12,0 - - 0,0
17.07.2019 20:00:00 15,1 12,0 - - 0,0
17.07.2019 19:00:00 14,9 11,5 - - 0,0
17.07.2019 18:00:00 15,1 11,7 - - 0,0
17.07.2019 17:00:00 15,5 11,6 - - 0,0
17.07.2019 16:00:00 16,0 11,8 - - 0,0
17.07.2019 15:00:00 - - - - -
17.07.2019 14:00:00 - - - - -
17.07.2019 13:00:00 15,2 12,2 - - 0,0
17.07.2019 12:00:00 15,9 11,4 - - 0,0
17.07.2019 11:00:00 17,1 11,8 - - 0,0
17.07.2019 10:00:00 16,3 11,7 16,0 13,4 0,0
17.07.2019 09:00:00 16,2 11,8 - - 0,0

tt = temperature
td = dewpoint
tt -20cm = temperature -20cm
tt -100cm = temperature -100cm
rr = precipitation

Next stations